Weather Roundup
Issued by NWS

Home | Current Version | Previous Version | Graphics & Text | Print | Product List | Glossary Off
Versions: 1 2 3 4 5 6 7 8 9 10 11 12 13 14 15 16 17 18 19 20 21 22 23 24 25 26 27 28 29 30 31 32 33 34 35 36 37 38 39 40 41 42 43 44 45 46 47 48 49 50

000
NZUS93 KARX 042159
HRRWXR

CURRENT HOURLY OBSERVATIONS ACROSS
MUCH OF THE UPPER MISSISSIPPI VALLEY
NATIONAL WEATHER SERVICE LA CROSSE WI
400 PM CST SUN DEC 04 2016


...SOUTHEAST MINNESOTA...


CITY           SKY/WX    TMP DP  RH WIND       PRES   REMARKS
ROCHESTER      CLOUDY    33  31  92 SW13      29.79F WCI  24
ROCHESTER/MAYO CLOUDY    34  33  97 SW7       29.80S WCI  28
WINONA         CLOUDY    34  32  93 SW5       29.82F WCI  30
AUSTIN         NOT AVBL
ALBERT LEA     CLOUDY    39  37  93 SW7       29.79S WCI  34
DODGE CENTER   CLOUDY    34  32  93 SW10      29.79R WCI  26
PRESTON        CLOUDY    32  30  92 SW9       29.82R WCI  24
OWATONNA       CLOUDY    36  32  87 S7        29.78F WCI  30
FARIBAULT      MOCLDY    36  34  93 S7        29.78F WCI  30
$$

...ELSEWHERE IN MINNESOTA...


CITY           SKY/WX    TMP DP  RH WIND       PRES   REMARKS
MINNEAPOLIS    CLOUDY    37  32  82 SW10      29.76S WCI  30
INTNL FALLS    FOG       31  28  89 SE7       29.66F VSB 1   WCI  24
DULUTH         LGT SNOW  31  30  96 S8        29.69F FOG     WCI  23
RED WING       CLOUDY    36  32  87 SW3       29.78S
REDWOOD FALLS  PTCLDY    41  31  67 W17       29.76R
MANKATO        CLEAR     39  34  82 SW9       29.77F WCI  33
WORTHINGTON    CLEAR     41  33  73 W13       29.79R
FAIRMONT       CLEAR     43  35  73 W9        29.79S
$$

...SOUTHWEST WISCONSIN...


CITY           SKY/WX    TMP DP  RH WIND       PRES   REMARKS
LA CROSSE      CLOUDY    35  32  88 S9        29.84S FOG     WCI  28
PRAIRIE DU CHI CLOUDY    33  31  92 S3        29.88S FOG
BOSCOBEL       CLOUDY    34  30  85 S3        29.88S
LONE ROCK      LGT SNOW  32  29  88 CALM      29.89S VSB 1
PLATTEVILLE    CLOUDY    31  31 100 S8        29.88S WCI  24
FORT MC COY    CLOUDY    32  31  94 S3        29.85S
CAMP DOUGLAS   CLOUDY    32  30  93 S8        29.84S WCI  25
MAUSTON-NEW LI LGT SNOW  31  30  95 SE5       29.84F WCI  27
VIROQUA        CLOUDY    31  31  99 CALM      29.83F
WIS DELLS      MIX PCPN  31  29  94 S9        29.86F WCI  22
$$

...ELSEWHERE IN WISCONSIN...


CITY           SKY/WX    TMP DP  RH WIND       PRES   REMARKS
MILWAUKEE      LGT SNOW  34  31  88 S8        29.89F VSB 3/4 WCI  27
MADISON        LGT SNOW  31  29  92 S10       29.88F VSB 3/4 WCI  22
GREEN BAY      SNOW      33  32  96 E3        29.89F VSB 1/2
EAU CLAIRE     NOT AVBL
BLACK RVR FLS  CLOUDY    32  32 100 S3        29.83S
MEDFORD        MIX PCPN  29  28  94 S13       29.78F WCI  19
WAUSAU         LGT SNOW  29  28  96 S9        29.81F VSB 3/4 WCI  20
WIS RAPIDS     LGT SNOW  31  30  96 S7        29.85F VSB 1   WCI  24
MARSHFIELD     LGT SNOW  30  27  88 S13       29.80F FOG     WCI  20
RICE LAKE      CLOUDY    32  32  99 S8        29.77F FOG     WCI  25
$$

...NORTHEAST IOWA...


CITY           SKY/WX    TMP DP  RH WIND       PRES   REMARKS
WATERLOO       CLOUDY    33  32  96 SW6       29.87R WCI  28
DUBUQUE        CLOUDY    31  30  96 S10       29.88S FOG     WCI  22
DECORAH        CLOUDY    32  32 100 VRB5      29.83S WCI  27
MASON CITY     CLOUDY    34  31  88 SW9       29.85R WCI  27
CHARLES CITY   CLOUDY    34  32  93 SW12      29.85S WCI  25
OELWEIN        CLOUDY    34  32  93 SW8       29.86S FOG     WCI  27
$$

...ELSEWHERE IN IOWA...


CITY           SKY/WX    TMP DP  RH WIND       PRES   REMARKS
DES MOINES     CLOUDY    38  34  85 W13       29.91R WCI  30
IOWA CITY      CLOUDY    34  32  92 SW7       29.93R FOG     WCI  28
FORT DODGE     MOCLDY    36  30  80 S8        29.86S WCI  29
MARSHALLTOWN   CLOUDY    33  31  92 W14       29.88R WCI  23
CEDAR RAPIDS   CLOUDY    32  32 100 S9        29.89R FOG     WCI  24
$$

...NORTHERN ILLINOIS...


CITY           SKY/WX    TMP DP  RH WIND       PRES   REMARKS
CHICAGO-OHARE  SNOW      32  31  96 NW3       29.90F VSB 1/4
CHICAGO-MIDWAY SNOW      33  31  92 CALM      29.90R VSB 1/2
MOLINE         CLOUDY    33  30  88 S3        29.92R FOG
ROCKFORD       SNOW      31  29  92 S5        29.93F VSB 1/2 WCI  26
PEORIA         CLOUDY    33  33 100 CALM      29.93R FOG
$$

NOTE: "FAIR" INDICATES FEW OR NO CLOUDS BELOW 12,000 FEET WITH NO
SIGNIFICANT WEATHER AND/OR OBSTRUCTIONS TO VISIBILITY. WIND
SPEEDS ARE IN MILES-PER-HOUR.




USA.gov is the U.S. government's official web portal to all federal, state and local government web resources and services.